Location: *
(13.2257°S, 48.7193°W)
Time: 12:36:37
(UTC+00:00)

ARIANE 5 DEB (SYLDA) - Visible Passes

Search period start: 18 May 2026 00:00
Search period end: 28 May 2026 00:00
Orbit: 839 x 35978 km, 1.7° (Epoch: 17 May)

Date Brightness Start Highest point End Pass type
(mag) Time Alt. Az. Time Alt. Az. Time Alt. Az.
18 May 5.3 05:50:11 39° NNE 05:50:11 39° NNE 15:37:01 10° E visible
19 May 9.1 15:01:45 10° W 16:31:31 27° WNW 19:51:15 10° W visible
20 May 5.3 00:22:20 10° W 00:37:00 35° NW 00:37:00 35° NW visible
20 May 5.7 12:04:05 10° WNW 22:00:58 61° NNW 22:11:41 12° ENE visible
22 May 5.3 06:56:10 34° NW 07:01:41 51° NNE 16:57:54 10° E visible
23 May 6.4 04:30:50 16° ENE 04:30:50 16° ENE 04:34:28 10° ENE visible
23 May 9.7 10:25:24 10° E 12:34:59 19° E 13:47:32 10° E visible
24 May 4.8 13:21:49 10° W 15:08:42 45° WNW 23:17:44 36° NE visible
26 May 6.1 08:02:10 12° WNW 08:17:27 59° NNE 18:12:31 10° E visible
27 May 5.5 05:36:50 40° NNE 05:36:50 40° NNE 15:24:56 10° E visible
